Location: Gisborne
(38.6530°S, 178.0040°E)
Time: 12:39:42
(UTC+13:00)

Daily predictions for brighter satellites

Satellite Brightness Start Highest point End
(mag) Time Altitude Azimuth Time Altitude Azimuth Time Altitude Azimuth
Cosmos 2285 Rocket 4.0 19:51:33 10° N 19:57:53 76° ENE 20:04:14 10° SSE
ADEOS Rocket 2.9 19:52:42 10° NNE 19:58:46 74° ESE 20:04:26 10° S
SAR-Lupe-2 4.2 19:56:29 10° N 20:00:04 61° WNW 20:03:42 10° SSW
CZ-2C R/B 4.0 19:58:59 10° ENE 20:02:40 20° ESE 20:06:22 10° SSE
Cosmos 968 Rocket 3.6 19:58:07 10° NNW 20:03:19 87° WSW 20:08:33 10° SSE
Cosmos 1242 Rocket 3.0 20:00:27 10° NNW 20:04:01 68° W 20:07:35 10° S
Cosmos 220 Rocket 4.1 20:02:24 10° SSW 20:06:51 82° WNW 20:11:09 10° NNE
Cosmos 2369 Rocket 4.4 20:02:53 10° SW 20:07:37 27° WNW 20:12:19 10° NNW
Meteor 1-11 4.3 20:05:58 10° N 20:11:47 77° E 20:17:36 10° SSE
Intercosmos 25 Rocket 4.4 20:08:42 10° SSE 20:12:03 30° E 20:16:35 10° NE
Cosmos 2123 Rocket 4.3 20:06:49 10° S 20:13:13 78° W 20:19:33 10° N
Cosmos 1455 2.7 20:09:24 10° SSW 20:13:19 66° W 20:17:10 10° N
CSL-04 Debris 4.4 20:08:05 10° SSE 20:13:22 48° E 20:18:35 10° N
ISS -2.7 20:10:08 10° WNW 20:13:26 49° SW 20:16:45 10° SE
Cosmos 1656 Rocket 4.5 20:10:49 10° SSW 20:16:25 56° WNW 20:21:59 10° N
YAOGAN 6 2.7 20:13:54 10° SSE 20:17:42 90° NNW 20:21:27 10° NNW
Okean-O 3.9 20:13:58 10° S 20:18:17 46° WSW 20:22:33 10° NW
Aureole 2 Rocket 1.7 20:16:50 10° SSW 20:19:36 64° ESE 20:22:13 10° NNE
Cosmos 1605 Rocket 4.4 20:26:17 10° NNW 20:32:22 68° W 20:38:36 10° S
Cosmos 1833 Rocket 3.9 20:28:42 10° NE 20:32:32 19° E 20:36:27 10° SE
HJ-1C 4.4 20:30:13 10° SE 20:33:14 27° E 20:35:10 17° NE
Envisat 4.0 20:31:56 10° S 20:36:56 52° WSW 20:41:52 10° NNW
Cosmos 1340 Rocket 4.1 20:33:49 10° SSW 20:37:38 42° W 20:41:22 10° NNW
Cosmos 1867 3.7 20:32:21 10° SSW 20:37:44 61° ESE 20:41:44 18° NE
H-2A R/B 3.7 20:40:27 10° ESE 20:42:25 14° E 20:42:25 14° E
Cosmos 2173 Rocket 4.0 20:43:43 10° N 20:49:42 60° E 20:55:46 10° SSE
Cosmos 1777 Rocket 4.0 20:44:55 10° N 20:50:05 64° ENE 20:55:20 10° SSE
CZ-2D R/B 3.2 20:48:01 10° SSE 20:51:55 90° NE 20:55:46 10° NNW
Cosmos 1939 Rocket 2.7 20:49:53 10° SSE 20:53:50 83° E 20:57:45 10° N
YAOGAN 1 3.5 20:51:42 10° S 20:55:58 52° WSW 21:00:13 10° NNW
CZ-4C R/B 3.0 20:49:27 10° NNW 20:57:42 87° WSW 21:04:59 10° SSE
Cosmos 1802 Rocket 4.0 20:54:01 10° N 21:00:09 60° E 21:06:17 10° SSE
Cosmos 1869 3.2 20:59:46 10° S 21:03:51 69° E 21:05:39 31° NNE
CSL-04 Rocket 4.3 20:58:49 10° S 21:04:19 59° WSW 21:09:47 10° NNW
Cosmos 1538 Rocket 4.2 20:59:10 10° S 21:04:19 51° ESE 21:06:28 31° NE
Cosmos 2082 Rocket 3.3 21:05:23 24° E 21:05:23 24° E 21:09:01 10° SE
Centaur AC-112 4.5 21:06:30 10° NW 21:07:27 11° NNW 21:08:07 10° NNW
GPS 2-04 Rocket1 2.6 21:05:25 10° WNW 21:08:49 48° N 21:09:00 47° NNE
Haruka 4.3 20:56:41 10° W 21:08:49 37° NNW 21:11:14 24° NNE
DELTA 2 R/B (1) 3.6 21:03:28 10° W 21:09:08 81° S 21:12:30 25° E
Cosmos 1766 Rocket 3.8 21:09:14 37° NE 21:10:30 47° E 21:14:52 10° SSE
Cosmos 2221 3.9 21:06:49 10° SSW 21:10:55 39° W 21:14:56 10° NNW
Cosmos 1892 2.8 21:11:34 48° ENE 21:11:48 49° E 21:15:33 10° SSE
ARGOS 4.2 21:07:26 10° SE 21:11:26 26° E 21:11:26 26° E
PSLV R/B 3.8 21:09:35 10° W 21:11:38 35° NW 21:11:38 35° NW
Cosmos 1725 Rocket 4.2 21:09:16 22° NNE 21:13:07 50° E 21:19:13 10° SSE
Lacrosse 4 Rocket 3.7 21:11:47 10° SSE 21:13:53 13° SE 21:14:28 13° SE
Cosmos 2100 Rocket 4.2 21:11:51 10° NNW 21:18:02 74° W 21:24:22 10° S
BREEZE-M DEB (TANK) 4.2 21:17:10 10° SSW 21:18:40 14° SSE 21:19:48 12° SE
Ariane Rocket 3.0 21:14:26 10° SSE 21:19:36 84° WSW 21:24:42 10° NNW
Lacrosse 5 rocket 3.7 21:16:21 10° NNW 21:16:53 13° N 21:16:53 13° N
MINOTAUR IV R/B 4.5 21:16:54 10° NNW 21:21:27 76° ENE 21:26:04 10° SSE
ATLAS CENTAUR R/B 4.4 21:05:50 10° NW 21:21:29 61° SW 21:27:05 10° SSE
Cosmos 1408 Rocket 4.1 21:21:55 40° E 21:21:55 40° E 21:25:49 10° SSE
USA 229 DEB 3.7 21:14:58 10° SW 21:21:50 78° WNW 21:25:18 30° NNE
USA 229 3.7 21:15:01 10° SW 21:21:53 80° WNW 21:25:22 30° NNE
Okean 3 Rocket 3.5 21:19:49 23° N 21:22:34 89° E 21:27:03 10° S
Cosmos 1697 Rocket 3.6 21:17:42 10° S 21:22:44 31° ESE 21:23:50 29° E
COSMOS 2406 3.5 21:17:11 10° NNW 21:22:50 70° WSW 21:28:33 10° SSE
Cosmos 2058 3.7 21:19:37 10° NNW 21:23:41 51° W 21:27:47 10° S
MOS 1 Rocket 3.6 21:24:44 45° ENE 21:25:29 49° ESE 21:30:21 10° S
CZ-4 R/B 4.5 21:23:00 10° SSW 21:25:33 17° WSW 21:28:07 10° WNW
In-Cosmos 22 Rocket 4.3 21:21:49 10° N 21:27:37 86° W 21:33:34 10° S
FREGAT/IRIS 3.5 21:25:01 10° S 21:27:08 43° SSW 21:27:08 43° SSW
NOSS 3-1 (A) 3.3 21:21:47 10° SSW 21:28:04 68° SE 21:29:46 45° ENE
USA 215 3.3 21:25:54 10° SE 21:32:21 54° NE 21:38:45 10° NNW
USA 186 2.4 21:29:16 10° S 21:31:59 52° SSE 21:31:59 52° SSE
Cosmos 2016 Rocket 4.0 21:28:29 10° N 21:34:53 86° W 21:41:20 10° S
Cosmos 2369 4.2 21:30:38 10° S 21:36:05 43° ESE 21:36:54 40° E
Cosmos 2151 3.0 21:36:44 46° NNW 21:37:58 78° W 21:42:18 10° S
CZ-2C R/B 4.1 21:35:07 10° SSE 21:38:40 30° ESE 21:38:40 30° ESE
MOS 1 4.2 21:35:03 10° SSE 21:40:51 90° WSW 21:44:50 21° NNW
SJ-6B 3.0 21:38:05 10° SSE 21:41:47 67° SE 21:41:47 67° SE
NOSS 3-1 (C) 3.6 21:36:28 10° SW 21:42:30 59° WNW 21:44:18 40° N
CZ-2C R/B 3.3 21:39:24 22° NNW 21:42:34 49° W 21:47:39 10° SSW
SL-08 R/B 4.4 21:38:54 22° N 21:43:06 88° W 21:49:29 10° S
Cosmos 1816 Rocket 4.4 21:38:27 10° S 21:44:39 69° E 21:46:04 52° NE
Atlas 2A Centaur Rocket 4.1 21:20:02 10° WNW 21:44:48 42° NNW 21:46:52 36° NNE
ISS -0.6 21:49:07 10° SW 21:50:49 13° SSW 21:52:32 10° SSE
BREEZE-M R/B 4.0 21:42:59 10° WSW 21:51:39 51° SSE 21:51:49 51° SSE
Cosmos 1408 4.4 21:57:07 26° S 21:57:07 26° S 21:58:49 10° S
Cosmos 1656 3.6 21:49:56 10° SSW 21:55:41 84° WNW 21:56:36 65° N
Cosmos 2112 Rocket 4.5 21:59:31 10° S 22:04:11 48° SE 22:04:11 48° SE
Cosmos 2278 3.9 22:00:31 10° SSW 22:05:57 55° SE 22:05:57 55° SE
SPOT 3 Rocket 3.5 22:02:07 10° S 22:07:21 80° WSW 22:07:46 74° NW
NOSS 2-3 (C) 4.1 22:05:51 10° SW 22:12:28 82° WNW 22:12:32 82° NW
Cosmos 1980 Rocket 2.9 22:10:01 10° S 22:14:45 43° SE 22:14:45 43° SE
Cosmos 1833 Rocket 3.3 22:10:25 10° NW 22:15:57 54° WSW 22:21:33 10° SSE
Resurs 01 Rocket 3.4 22:12:15 10° SSE 22:14:09 24° SSE 22:14:09 24° SSE
Cosmos 1680 Rocket 3.7 22:15:31 10° SSW 22:20:09 66° S 22:20:09 66° S
H-2A R/B 2.4 22:17:57 10° S 22:22:55 60° WSW 22:23:03 60° W
SJ 16-02 3.7 22:27:05 17° SSE 22:27:05 17° SSE 22:28:08 10° SSE
Tsikada Rocket 4.4 22:19:31 10° SSW 22:25:37 58° W 22:26:44 51° NW
Mayak 0.9 22:30:32 21° SSE 22:30:32 21° SSE 22:32:09 10° S
Meteor 2-3 Rocket 4.1 22:30:37 57° SSE 22:30:37 57° SSE 22:35:12 10° SSE
ATLAS CENTAUR Rocket 3.9 22:10:29 10° W 22:38:25 46° NNW 22:38:39 46° NNW
Cosmos 2082 Rocket 3.2 22:47:06 38° W 22:48:19 43° WSW 22:53:43 10° S
ARGOS 4.3 22:47:16 10° S 22:52:15 38° WSW 22:52:58 36° W
Lacrosse 4 Rocket 3.5 22:48:38 10° SSW 22:50:47 27° SW 22:50:47 27° SW
Cosmos 1697 Rocket 4.0 23:01:32 10° SW 23:05:35 33° W 23:05:35 33° W
USA 215 4.2 23:09:00 10° SE 23:15:13 45° SSW 23:21:25 10° WNW
SL-16 R/B 3.7 23:12:46 10° S 23:16:05 31° SSE 23:16:05 31° SSE
Cosmos 2322 Rocket 3.8 23:40:38 10° SSW 23:43:34 31° S 23:43:34 31° S
USA 267 3.9 23:49:25 50° SSW 23:49:25 50° SSW 23:54:11 10° SW
Cosmos 2360 Rocket 4.1 23:48:26 10° S 23:51:06 25° SSE 23:51:06 25° SSE
